Orbital Elements at Epoch 2459200.5 (2020-Dec-17.0) TDB
Reference: JPL 17 (heliocentric ecliptic J2000)
Element | Value | Uncertainty (1-sigma) | Units |
e | .1761481314416805 | 3.3174e-08 | |
a | 2.374276563376311 | 1.3302e-08 | au |
q | 1.956052183211799 | 8.0507e-08 | au |
i | 4.532025798669443 | 4.1274e-06 | deg |
node | 61.27899092897628 | 6.7972e-05 | deg |
peri | 198.1101190439394 | 6.9944e-05 | deg |
M | 216.3345851453335 | 1.8485e-05 | deg |
tp | 2459733.767499213550 (2022-Jun-03.26749921) | 7.0529e-05 | TDB |
period | 1336.273590349377 3.66 | 1.123e-05 3.075e-08 | d yr |
n | .269405908041538 | 2.2641e-09 | deg/d |
Q | 2.792500943540823 | 1.5645e-08 | au |
|
| | Orbit Determination Parameters
Additional Information
|